TimePST,TemperatureF,Dew PointF,Humidity,Sea Level PressureIn,VisibilityMPH,Wind Direction,Wind SpeedMPH,Gust SpeedMPH,PrecipitationIn,Events,Conditions,WindDirDegrees,DateUTC
12:03 AM,37.4,33.8,87,29.99,10.0,ESE,8.1,-,N/A,,Scattered Clouds,120,2013-02-21 08:03:00
12:36 AM,37.4,35.6,93,30.01,10.0,Variable,3.5,-,N/A,,Mostly Cloudy,0,2013-02-21 08:36:00
12:53 AM,37.9,35.1,89,30.03,10.0,SSE,4.6,-,N/A,,Overcast,150,2013-02-21 08:53:00
1:53 AM,37.9,36.0,93,30.03,10.0,SSE,5.8,-,N/A,,Overcast,160,2013-02-21 09:53:00
2:07 AM,37.4,35.6,93,30.01,10.0,SSE,6.9,-,0.00,Rain,Light Rain,160,2013-02-21 10:07:00
2:31 AM,37.4,35.6,93,30.02,10.0,South,4.6,-,0.00,,Overcast,170,2013-02-21 10:31:00
2:53 AM,37.9,36.0,93,30.03,8.0,SSE,6.9,-,0.00,Rain,Light Rain,160,2013-02-21 10:53:00
3:00 AM,37.4,35.6,93,30.02,10.0,South,5.8,-,N/A,,Overcast,170,2013-02-21 11:00:00
3:38 AM,37.4,35.6,93,30.00,8.0,SSE,8.1,-,0.00,Rain,Light Rain,150,2013-02-21 11:38:00
3:45 AM,37.4,35.6,93,30.01,7.0,SSE,8.1,-,0.00,Rain,Light Rain,160,2013-02-21 11:45:00
3:53 AM,37.9,36.0,93,30.03,10.0,SSE,9.2,-,0.00,,Overcast,160,2013-02-21 11:53:00
4:32 AM,37.4,37.4,100,30.00,9.0,South,9.2,-,N/A,,Overcast,170,2013-02-21 12:32:00
4:53 AM,39.0,37.0,93,30.02,9.0,South,8.1,-,N/A,,Overcast,170,2013-02-21 12:53:00
5:19 AM,39.2,37.4,93,30.01,10.0,South,11.5,-,0.00,,Overcast,180,2013-02-21 13:19:00
5:45 AM,39.2,37.4,93,30.00,10.0,South,11.5,-,0.00,,Overcast,190,2013-02-21 13:45:00
5:53 AM,39.0,37.0,93,30.02,10.0,South,9.2,-,0.00,,Overcast,190,2013-02-21 13:53:00
6:00 AM,39.2,37.4,93,30.01,10.0,South,12.7,-,N/A,,Overcast,190,2013-02-21 14:00:00
6:26 AM,39.2,37.4,93,30.01,10.0,South,11.5,-,N/A,,Overcast,190,2013-02-21 14:26:00
6:53 AM,39.0,36.0,89,30.03,10.0,South,11.5,-,N/A,,Overcast,190,2013-02-21 14:53:00
7:53 AM,39.9,37.0,89,30.03,10.0,South,12.7,-,0.00,Rain,Light Rain,180,2013-02-21 15:53:00
8:00 AM,39.2,35.6,87,30.01,10.0,South,15.0,-,0.00,Rain,Light Rain,180,2013-02-21 16:00:00
8:53 AM,39.9,37.0,89,30.03,10.0,South,15.0,-,0.01,,Overcast,180,2013-02-21 16:53:00
9:08 AM,39.2,35.6,87,30.02,10.0,South,15.0,-,N/A,,Overcast,180,2013-02-21 17:08:00
9:53 AM,41.0,36.0,82,30.03,10.0,South,13.8,-,N/A,,Overcast,180,2013-02-21 17:53:00
10:05 AM,41.0,35.6,81,30.02,10.0,South,17.3,23.0,N/A,,Overcast,180,2013-02-21 18:05:00
10:53 AM,41.0,36.0,82,30.04,10.0,SSW,11.5,21.9,N/A,,Overcast,200,2013-02-21 18:53:00
11:53 AM,41.0,35.1,79,30.03,10.0,South,19.6,28.8,0.00,,Overcast,180,2013-02-21 19:53:00
12:49 PM,42.8,35.6,76,30.00,10.0,South,19.6,25.3,N/A,,Overcast,180,2013-02-21 20:49:00
12:53 PM,42.1,35.1,76,30.01,10.0,South,20.7,32.2,N/A,,Overcast,180,2013-02-21 20:53:00
1:24 PM,42.8,35.6,76,30.00,10.0,South,21.9,28.8,N/A,,Overcast,180,2013-02-21 21:24:00
1:53 PM,42.1,35.1,76,30.01,10.0,South,19.6,27.6,N/A,,Overcast,190,2013-02-21 21:53:00
2:53 PM,42.1,36.0,79,30.01,10.0,South,13.8,28.8,N/A,,Overcast,180,2013-02-21 22:53:00
3:53 PM,42.1,36.0,79,30.03,10.0,South,15.0,-,N/A,,Overcast,190,2013-02-21 23:53:00
4:53 PM,42.1,36.0,79,30.03,10.0,South,11.5,-,N/A,,Overcast,190,2013-02-22 00:53:00
5:53 PM,42.1,37.0,82,30.05,10.0,South,9.2,-,N/A,,Overcast,190,2013-02-22 01:53:00
6:53 PM,42.1,37.9,85,30.04,10.0,South,6.9,-,N/A,,Overcast,170,2013-02-22 02:53:00
7:29 PM,41.0,39.2,93,30.03,10.0,South,4.6,-,N/A,,Overcast,170,2013-02-22 03:29:00
7:53 PM,41.0,39.0,93,30.04,10.0,SSE,5.8,-,N/A,,Overcast,160,2013-02-22 03:53:00
8:53 PM,41.0,39.0,93,30.06,10.0,SSE,4.6,-,N/A,,Overcast,160,2013-02-22 04:53:00
9:53 PM,42.1,39.0,89,30.06,10.0,SSE,4.6,-,N/A,,Overcast,160,2013-02-22 05:53:00
11:12 PM,41.0,37.4,87,30.03,10.0,South,9.2,-,N/A,,Overcast,180,2013-02-22 07:12:00
11:36 PM,41.0,37.4,87,30.03,10.0,South,11.5,-,N/A,,Overcast,190,2013-02-22 07:36:00
11:53 PM,41.0,37.0,86,30.04,10.0,South,9.2,-,N/A,,Overcast,180,2013-02-22 07:53:00